When you browse on this site, cookies collect data to enhance your experience and personalize the content and advertising you see.
Visit our Privacy Policy to learn more. By continuing to use the site, you agree to this use of cookies and data.
  • In Hungary
  • List of Countries
  • For 7 days
  • Water Temperature
  • Satellite Maps
  • Weather Map
  • News
  • Weather Widgets
  • user-avatar
    Login

    Hourly Weather Porosle

    Today, 25 May, Saturday

    Time Temperature Precipitation Wind Pressure Humidity
    00:00 +14°C° 0 mm 2 mps 745 mmHg 93%
    01:00 +13°C° 0 mm 1 mps 745 mmHg 93%
    02:00 +13°C° 0 mm 1 mps 745 mmHg 94%
    03:00 +13°C° 0 mm 1 mps 745 mmHg 93%
    04:00 +13°C° 0 mm 1 mps 745 mmHg 93%
    05:00 +11°C° 0 mm 0 mps 745 mmHg 92%
    06:00 +14°C° 0 mm 1 mps 745 mmHg 85%
    07:00 +16°C° 0 mm 2 mps 745 mmHg 79%
    08:00 +18°C° 0 mm 2 mps 745 mmHg 72%
    09:00 +19°C° 0.1 mm 3 mps 745 mmHg 68%
    10:00 +20°C° 0.1 mm 3 mps 745 mmHg 64%
    11:00 +21°C° 0.1 mm 4 mps 745 mmHg 60%
    12:00 +21°C° 0 mm 4 mps 745 mmHg 57%
    13:00 +22°C° 0 mm 4 mps 745 mmHg 55%
    14:00 +22°C° 0 mm 5 mps 744 mmHg 52%
    15:00 +22°C° 0.1 mm 5 mps 744 mmHg 55%
    16:00 +22°C° 0.1 mm 5 mps 744 mmHg 59%
    17:00 +21°C° 0.1 mm 5 mps 744 mmHg 62%
    18:00 +20°C° 0.2 mm 4 mps 744 mmHg 70%
    19:00 +18°C° 0.2 mm 3 mps 744 mmHg 78%
    20:00 +17°C° 0.2 mm 3 mps 744 mmHg 85%
    21:00 +15°C° 0 mm 2 mps 745 mmHg 87%
    22:00 +14°C° 0 mm 2 mps 745 mmHg 89%
    23:00 +13°C° 0 mm 2 mps 745 mmHg 91%

    Tomorrow, 26 May, Sunday

    Time Temperature Precipitation Wind Pressure Humidity
    00:00 +12°C° 0 mm 1 mps 746 mmHg 91%
    01:00 +11°C° 0 mm 1 mps 746 mmHg 90%
    02:00 +10°C° 0 mm 1 mps 746 mmHg 90%
    03:00 +10°C° 0 mm 1 mps 746 mmHg 90%
    04:00 +10°C° 0 mm 1 mps 746 mmHg 91%
    05:00 +10°C° 0 mm 1 mps 746 mmHg 91%
    06:00 +12°C° 0 mm 2 mps 746 mmHg 86%
    07:00 +13°C° 0 mm 3 mps 746 mmHg 80%
    08:00 +14°C° 0 mm 4 mps 746 mmHg 74%
    09:00 +15°C° 0 mm 5 mps 746 mmHg 69%
    10:00 +16°C° 0 mm 5 mps 746 mmHg 64%
    11:00 +17°C° 0 mm 5 mps 746 mmHg 60%
    12:00 +19°C° 0 mm 5 mps 746 mmHg 58%
    13:00 +19°C° 0 mm 5 mps 745 mmHg 56%
    14:00 +20°C° 0 mm 5 mps 745 mmHg 55%
    15:00 +20°C° 0 mm 5 mps 745 mmHg 56%
    16:00 +20°C° 0 mm 5 mps 745 mmHg 57%
    17:00 +20°C° 0 mm 5 mps 744 mmHg 58%
    18:00 +18°C° 0 mm 4 mps 745 mmHg 65%
    19:00 +17°C° 0 mm 3 mps 745 mmHg 71%
    20:00 +16°C° 0 mm 3 mps 745 mmHg 78%
    21:00 +15°C° 0 mm 2 mps 745 mmHg 81%
    22:00 +14°C° 0 mm 2 mps 745 mmHg 85%
    23:00 +13°C° 0 mm 2 mps 745 mmHg 88%

    Day after tomorrow, 27 May, Monday

    Time Temperature Precipitation Wind Pressure Humidity
    00:00 +12°C° 0 mm 3 mps 745 mmHg 88%
    01:00 +12°C° 0 mm 3 mps 745 mmHg 87%
    02:00 +12°C° 0 mm 3 mps 745 mmHg 87%
    03:00 +12°C° 0 mm 3 mps 745 mmHg 87%
    04:00 +12°C° 0 mm 3 mps 745 mmHg 88%
    05:00 +11°C° 0 mm 3 mps 745 mmHg 88%
    06:00 +13°C° 0 mm 3 mps 745 mmHg 83%
    07:00 +15°C° 0 mm 4 mps 745 mmHg 77%
    08:00 +18°C° 0 mm 4 mps 745 mmHg 72%
    09:00 +20°C° 0 mm 5 mps 745 mmHg 67%
    10:00 +21°C° 0 mm 5 mps 745 mmHg 62%
    11:00 +22°C° 0 mm 6 mps 745 mmHg 57%
    12:00 +23°C° 0.1 mm 6 mps 745 mmHg 56%
    13:00 +24°C° 0.1 mm 6 mps 745 mmHg 55%
    14:00 +24°C° 0.1 mm 6 mps 744 mmHg 53%
    15:00 +25°C° 0.1 mm 5 mps 744 mmHg 55%
    16:00 +25°C° 0.1 mm 5 mps 744 mmHg 57%
    17:00 +25°C° 0.1 mm 5 mps 744 mmHg 59%
    18:00 +23°C° 0.3 mm 4 mps 744 mmHg 67%
    19:00 +21°C° 0.3 mm 4 mps 744 mmHg 74%
    20:00 +19°C° 0.3 mm 4 mps 744 mmHg 82%
    21:00 +19°C° 0 mm 3 mps 744 mmHg 85%
    22:00 +18°C° 0 mm 3 mps 744 mmHg 88%
    23:00 +18°C° 0 mm 3 mps 745 mmHg 91%

    28 May, Tuesday

    Time Temperature Precipitation Wind Pressure Humidity
    00:00 +17°C° 0 mm 3 mps 744 mmHg 92%
    01:00 +17°C° 0 mm 3 mps 744 mmHg 93%
    02:00 +16°C° 0 mm 2 mps 744 mmHg 94%
    03:00 +16°C° 0 mm 2 mps 744 mmHg 94%
    04:00 +16°C° 0 mm 2 mps 744 mmHg 93%
    05:00 +16°C° 0 mm 2 mps 744 mmHg 92%
    06:00 +17°C° 0 mm 2 mps 744 mmHg 90%
    07:00 +18°C° 0 mm 3 mps 744 mmHg 87%
    08:00 +19°C° 0 mm 3 mps 744 mmHg 85%
    09:00 +19°C° 2.4 mm 3 mps 743 mmHg 88%
    10:00 +18°C° 2.4 mm 3 mps 743 mmHg 92%
    11:00 +17°C° 2.4 mm 4 mps 743 mmHg 96%
    12:00 +18°C° 0.8 mm 3 mps 743 mmHg 95%
    13:00 +19°C° 0.8 mm 3 mps 742 mmHg 93%
    14:00 +19°C° 0.8 mm 3 mps 742 mmHg 92%
    15:00 +20°C° 0.7 mm 3 mps 742 mmHg 89%
    16:00 +22°C° 0.7 mm 3 mps 742 mmHg 85%
    17:00 +24°C° 0.7 mm 3 mps 741 mmHg 82%
    18:00 +22°C° 0.1 mm 3 mps 741 mmHg 85%
    19:00 +21°C° 0.1 mm 2 mps 742 mmHg 89%
    20:00 +21°C° 0.1 mm 1 mps 742 mmHg 92%
    21:00 +19°C° 0.6 mm 2 mps 742 mmHg 94%
    22:00 +18°C° 0.6 mm 2 mps 742 mmHg 96%
    23:00 +17°C° 0.6 mm 2 mps 742 mmHg 97%

    29 May, Wednesday

    Time Temperature Precipitation Wind Pressure Humidity
    00:00 +17°C° 0 mm 2 mps 742 mmHg 98%
    01:00 +17°C° 0 mm 3 mps 742 mmHg 98%
    02:00 +16°C° 0 mm 3 mps 742 mmHg 98%
    03:00 +16°C° 0.8 mm 3 mps 742 mmHg 98%
    04:00 +16°C° 0.8 mm 3 mps 742 mmHg 97%
    05:00 +16°C° 0.8 mm 3 mps 742 mmHg 97%
    06:00 +16°C° 0.2 mm 3 mps 742 mmHg 97%
    07:00 +17°C° 0.2 mm 3 mps 742 mmHg 96%
    08:00 +17°C° 0.2 mm 2 mps 743 mmHg 95%
    09:00 +18°C° 0.3 mm 3 mps 743 mmHg 92%
    10:00 +19°C° 0.3 mm 3 mps 743 mmHg 90%
    11:00 +19°C° 0.3 mm 4 mps 743 mmHg 87%
    12:00 +19°C° 0.2 mm 4 mps 744 mmHg 86%
    13:00 +19°C° 0.2 mm 4 mps 744 mmHg 84%
    14:00 +19°C° 0.2 mm 5 mps 744 mmHg 83%
    15:00 +17°C° 0 mm 5 mps 745 mmHg 84%
    16:00 +16°C° 0 mm 5 mps 745 mmHg 85%
    17:00 +15°C° 0 mm 6 mps 745 mmHg 86%
    18:00 +14°C° 0 mm 5 mps 746 mmHg 86%
    19:00 +13°C° 0 mm 5 mps 746 mmHg 86%
    20:00 +12°C° 0 mm 5 mps 747 mmHg 87%
    21:00 +12°C° 0 mm 5 mps 747 mmHg 86%
    22:00 +12°C° 0 mm 5 mps 748 mmHg 86%
    23:00 +11°C° 0 mm 4 mps 749 mmHg 85%

    30 May, Thursday

    Time Temperature Precipitation Wind Pressure Humidity
    00:00 +11°C° 0 mm 4 mps 749 mmHg 83%
    01:00 +10°C° 0 mm 4 mps 750 mmHg 80%
    02:00 +10°C° 0 mm 4 mps 750 mmHg 78%
    03:00 +8°C° 0 mm 4 mps 750 mmHg 77%
    04:00 +7°C° 0 mm 4 mps 751 mmHg 76%
    05:00 +7°C° 0 mm 3 mps 751 mmHg 75%
    06:00 +8°C° 0 mm 3 mps 751 mmHg 71%
    07:00 +9°C° 0 mm 3 mps 752 mmHg 67%
    08:00 +11°C° 0 mm 3 mps 752 mmHg 64%
    09:00 +12°C° 0 mm 3 mps 752 mmHg 58%
    10:00 +14°C° 0 mm 3 mps 752 mmHg 52%
    11:00 +17°C° 0 mm 3 mps 752 mmHg 46%
    12:00 +17°C° 0 mm 2 mps 752 mmHg 45%
    13:00 +18°C° 0 mm 2 mps 752 mmHg 45%
    14:00 +19°C° 0 mm 2 mps 752 mmHg 44%
    15:00 +19°C° 0 mm 2 mps 752 mmHg 46%
    16:00 +19°C° 0 mm 2 mps 752 mmHg 47%
    17:00 +20°C° 0 mm 1 mps 751 mmHg 49%
    18:00 +18°C° 0 mm 1 mps 751 mmHg 55%
    19:00 +16°C° 0 mm 1 mps 751 mmHg 61%
    20:00 +15°C° 0 mm 1 mps 751 mmHg 67%
    21:00 +14°C° 0 mm 1 mps 751 mmHg 68%
    22:00 +13°C° 0 mm 1 mps 751 mmHg 70%
    23:00 +11°C° 0 mm 0 mps 751 mmHg 71%
    Show more